Location: Helsinki
(60.1699°N, 24.9384°E)
Time: 00:00:36
(UTC+02:00)

A-11 Canister half - Pass Details

Date: 03 November 2020
Orbit: 1516 x 1684 km, 47.2° (Epoch: 26 November)

Event Time Altitude Azimuth Distance (km) Brightness Sun altitude
Rises 22:26:44 0° 259° (W) 4,931 11.9 -41.9°
Reaches altitude 10° 22:30:12 10° 252° (WSW) 3,932 11.2 -42.1°
Enters shadow 22:32:55 19° 243° (WSW) 3,225 10.6 -42.3°
Maximum altitude 22:39:06 38° 190° (S) 2,339 - -42.7°
Drops below altitude 10° 22:47:47 10° 127° (SE) 3,827 - -43.1°
Sets 22:51:06 0° 120° (ESE) 4,787 - -43.3°
